Opa-locka, FL

1:41 PM EST on January 17, 2017 (GMT -0500)
Opa Locka

Weather History for KOPF - September, 2013

Change the Weather History Date:

Friday, September 6, 2013

  Actual Average Record
Temperature  
Mean Temperature 85 °F -  
Max Temperature 91 °F 89 °F 93 °F (1986)
Min Temperature 79 °F 75 °F 69 °F (1971)
Cooling Degree Days 20    
Growing Degree Days 35 (Base 50)    
Moisture  
Dew Point 74 °F    
Average Humidity 72    
Maximum Humidity 90    
Minimum Humidity 53    
Precipitation  
Precipitation 0.00 in - - ()
Sea Level Pressure  
Sea Level Pressure 30.00 in    
Wind  
Wind Speed 4 mph (East)    
Max Wind Speed 14 mph    
Max Gust Speed -    
Visibility 10 miles    
Events      
Averages and records for this station are not official NWS values.
T = Trace of Precipitation, MM = Missing Value Source: NWS Daily Summary

Daily Weather History Graph

Daily Weather History Graph

Search for Another Location

Airport or City:

Trip Planner

Search our weather history database for the weather conditions in past years. The results will help you decide how hot, cold, wet, or windy it might be!

Date:

Astronomy

Sep. 06, 2013 Rise Set
Actual Time 7:03 AM EDT 7:34 PM EDT
Civil Twilight 6:40 AM EDT 7:58 PM EDT
Nautical Twilight 6:12 AM EDT 8:25 PM EDT
Astronomical Twilight 5:45 AM EDT 8:52 PM EDT
Moon 8:02 AM EDT (9/6) 8:13 PM EDT (9/6)
Length of Visible Light 13h 17m
Length of Day
12h 31m
New Moon, 1% of the Moon is Illuminated
Sep 6
New Moon
Sep 12
First Quarter
Sep 19
Full
Sep 26
Last Quarter
Oct 4
New

Hourly Weather History & Observations

Time (EDT) Temp. Heat Index Dew Point Humidity Pressure Visibility Wind Dir Wind Speed Gust Speed Precip Events Conditions
12:53 AM 80.1 °F 85.4 °F 75.9 °F 87% 30.04 in 10.0 mi Calm Calm - N/A   Clear
1:53 AM 80.1 °F 85.4 °F 75.9 °F 87% 30.03 in 10.0 mi Calm Calm - N/A   Clear
2:53 AM 79.0 °F - 75.9 °F 90% 30.01 in 10.0 mi Calm Calm - N/A   Clear
3:53 AM 81.0 °F 87.3 °F 75.9 °F 85% 30.00 in 10.0 mi Calm Calm - N/A   Partly Cloudy
4:53 AM 79.0 °F - 75.9 °F 90% 30.00 in 10.0 mi Calm Calm - N/A   Clear
5:53 AM 80.1 °F 85.4 °F 75.9 °F 87% 30.00 in 10.0 mi Calm Calm - N/A   Clear
6:53 AM 80.1 °F 85.4 °F 75.9 °F 87% 30.01 in 10.0 mi ENE 3.5 mph - N/A   Clear
7:53 AM 81.0 °F 87.9 °F 77.0 °F 88% 30.02 in 10.0 mi ENE 4.6 mph - N/A   Clear
8:53 AM 84.9 °F 94.1 °F 75.9 °F 74% 30.04 in 10.0 mi East 5.8 mph - N/A   Clear
9:53 AM 87.1 °F 96.3 °F 75.0 °F 67% 30.04 in 10.0 mi East 8.1 mph - N/A   Clear
10:53 AM 88.0 °F 96.5 °F 73.9 °F 63% 30.05 in 10.0 mi East 8.1 mph - N/A   Clear
11:53 AM 90.0 °F 97.9 °F 73.0 °F 57% 30.04 in 10.0 mi East 8.1 mph - N/A   Partly Cloudy
12:53 PM 91.0 °F 99.3 °F 73.0 °F 55% 30.03 in 10.0 mi ESE 8.1 mph - N/A   Scattered Clouds
1:53 PM 91.0 °F 98.2 °F 72.0 °F 53% 30.01 in 10.0 mi Variable 3.5 mph - N/A   Partly Cloudy
2:53 PM 91.0 °F 99.3 °F 73.0 °F 55% 29.98 in 10.0 mi East 5.8 mph - N/A   Clear
3:53 PM 91.0 °F 99.3 °F 73.0 °F 55% 29.96 in 10.0 mi ESE 9.2 mph - N/A   Partly Cloudy
4:53 PM 90.0 °F 97.9 °F 73.0 °F 57% 29.94 in 10.0 mi East 11.5 mph - N/A   Clear
5:53 PM 88.0 °F 94.7 °F 72.0 °F 59% 29.94 in 10.0 mi ENE 13.8 mph - N/A   Clear
6:53 PM 86.0 °F 92.2 °F 72.0 °F 63% 29.95 in 10.0 mi East 10.4 mph - N/A   Clear
7:53 PM 84.0 °F 92.6 °F 75.9 °F 76% 29.96 in 10.0 mi ENE 11.5 mph - N/A   Scattered Clouds
8:53 PM 84.0 °F 91.2 °F 73.9 °F 72% 29.97 in 10.0 mi East 9.2 mph - N/A   Clear
9:53 PM 82.9 °F 89.4 °F 73.9 °F 74% 29.99 in 10.0 mi NE 4.6 mph - N/A   Clear
10:53 PM 82.9 °F 88.0 °F 72.0 °F 69% 30.00 in 10.0 mi Calm Calm - N/A   Clear
11:53 PM 82.0 °F 87.9 °F 73.9 °F 76% 30.00 in 10.0 mi ESE 3.5 mph - N/A   Clear